Weather History for Madison, SD

Change the Weather History Date:

Tuesday, August 6, 2013

  Actual Average Record
Temperature  
Mean Temperature 72 °F -  
Max Temperature 84 °F 83 °F 89 °F (2012)
Min Temperature 59 °F 59 °F 59 °F (2010)
Cooling Degree Days 6    
Growing Degree Days 22 (Base 50)    
Moisture  
Dew Point 61 °F    
Average Humidity 74    
Maximum Humidity 100    
Minimum Humidity 42    
Precipitation  
Precipitation 0.00 in - - ()
Sea Level Pressure  
Sea Level Pressure 29.84 in    
Wind  
Wind Speed 7 mph (West)    
Max Wind Speed 20 mph    
Max Gust Speed 28 mph    
Visibility 10 miles    
Events Rain    
Averages and records for this station are not official NWS values.
T = Trace of Precipitation, MM = Missing Value Source: NWS Daily Summary

Daily Weather History Graph

Daily Weather History Graph

Search for Another Location

Airport:

Trip Planner

Search our weather history database for the weather conditions in past years. The results will help you decide how hot, cold, wet, or windy it might be!

Date:

Astronomy

Aug. 06, 2013 Rise Set
Actual Time 6:22 AM CDT 8:45 PM CDT
Civil Twilight 5:49 AM CDT 9:17 PM CDT
Nautical Twilight 5:09 AM CDT 9:57 PM CDT
Astronomical Twilight 4:24 AM CDT 10:42 PM CDT
Moon 6:16 AM CDT (8/6) 8:17 PM CDT (8/6)
Length of Visible Light 15h 27m
Length of Day
14h 23m
Waning Crescent, 0% of the Moon is Illuminated
Aug 6
Waning Crescent
Aug 6
New
Aug 14
First Quarter
Aug 20
Full
Aug 28
Last Quarter

Hourly Weather History & Observations

Time (CDT) Temp. Heat Index Dew Point Humidity Pressure Visibility Wind Dir Wind Speed Gust Speed Precip Events Conditions
12:10 AM 59.0 °F - 59.0 °F 100% 29.89 in 10.0 mi Calm Calm - N/A   Clear
12:30 AM 59.0 °F - 59.0 °F 100% 29.89 in 10.0 mi Calm Calm - N/A   Clear
12:50 AM 59.0 °F - 59.0 °F 100% 29.89 in 10.0 mi Calm Calm - N/A   Clear
1:10 AM 59.0 °F - 59.0 °F 100% 29.89 in 10.0 mi Calm Calm - N/A   Clear
1:30 AM 59.0 °F - 59.0 °F 100% 29.89 in 10.0 mi Calm Calm - N/A   Clear
1:50 AM 59.0 °F - 59.0 °F 100% 29.90 in 10.0 mi WSW 3.5 mph - N/A   Clear
2:10 AM 59.0 °F - 59.0 °F 100% 29.90 in 10.0 mi SW 5.8 mph - N/A   Clear
2:30 AM 60.8 °F - 60.8 °F 100% 29.89 in 10.0 mi WSW 8.1 mph - N/A   Clear
2:50 AM 62.6 °F - 62.6 °F 100% 29.88 in 10.0 mi SW 5.8 mph - N/A   Clear
3:10 AM 60.8 °F - 60.8 °F 100% 29.81 in 10.0 mi South 11.5 mph - N/A   Clear
3:30 AM 64.4 °F - 64.4 °F 100% 29.81 in 10.0 mi South 6.9 mph - N/A   Clear
3:50 AM 64.4 °F - 64.4 °F 100% 29.82 in 10.0 mi SSE 5.8 mph - N/A   Clear
4:10 AM 66.2 °F - 64.4 °F 94% 29.83 in 10.0 mi SW 5.8 mph - N/A   Clear
4:30 AM 64.4 °F - 64.4 °F 100% 29.83 in 10.0 mi Calm Calm - N/A   Clear
4:50 AM 64.4 °F - 64.4 °F 100% 29.83 in 10.0 mi ENE 3.5 mph - N/A   Clear
5:10 AM 60.8 °F - 60.8 °F 100% 29.85 in 10.0 mi WSW 3.5 mph - N/A   Clear
5:30 AM 62.6 °F - 62.6 °F 100% 29.85 in 10.0 mi SSW 9.2 mph - N/A   Clear
5:50 AM 62.6 °F - 62.6 °F 100% 29.84 in 10.0 mi South 10.4 mph - N/A   Clear
6:10 AM 62.6 °F - 62.6 °F 100% 29.84 in 10.0 mi South 9.2 mph - N/A   Clear
6:30 AM 66.2 °F - 66.2 °F 100% 29.85 in 10.0 mi SW 15.0 mph 20.7 mph N/A   Clear
6:50 AM 66.2 °F - 64.4 °F 94% 29.83 in 10.0 mi SW 13.8 mph 20.7 mph N/A   Clear
7:10 AM 66.2 °F - 64.4 °F 94% 29.77 in 10.0 mi South 13.8 mph - N/A   Partly Cloudy
7:30 AM 64.4 °F - 64.4 °F 100% 29.77 in 10.0 mi SSW 11.5 mph - N/A   Clear
7:50 AM 64.4 °F - 64.4 °F 100% 29.81 in 10.0 mi NW 9.2 mph 21.9 mph N/A   Clear
8:10 AM 66.2 °F - 62.6 °F 88% 29.81 in 10.0 mi NW 9.2 mph - N/A   Clear
8:30 AM 66.2 °F - 62.6 °F 88% 29.81 in 10.0 mi NNW 4.6 mph - N/A   Clear
8:50 AM 68.0 °F - 62.6 °F 83% 29.79 in 10.0 mi North 4.6 mph - N/A   Clear
9:10 AM 71.6 °F - 59.0 °F 64% 29.80 in 10.0 mi Calm Calm - N/A   Clear
9:30 AM 73.4 °F - 59.0 °F 61% 29.81 in 10.0 mi North 3.5 mph - N/A   Clear
9:50 AM 73.4 °F - 62.6 °F 69% 29.81 in 10.0 mi NE 4.6 mph - N/A   Clear
10:10 AM 73.4 °F - 60.8 °F 65% 29.82 in 10.0 mi North 3.5 mph - N/A   Clear
10:30 AM 75.2 °F - 62.6 °F 65% 29.83 in 10.0 mi WNW 3.5 mph - N/A   Clear
10:50 AM 77.0 °F - 60.8 °F 57% 29.83 in 10.0 mi West 5.8 mph - N/A   Clear
11:10 AM 77.0 °F - 60.8 °F 57% 29.83 in 10.0 mi West 8.1 mph - N/A   Clear
11:30 AM 78.8 °F - 59.0 °F 51% 29.83 in 10.0 mi West 9.2 mph - N/A   Clear
11:50 AM 77.0 °F - 60.8 °F 57% 29.83 in 10.0 mi WSW 6.9 mph - N/A   Clear
12:10 PM 78.8 °F - 62.6 °F 57% 29.84 in 10.0 mi WSW 9.2 mph - N/A   Clear
12:30 PM 80.6 °F 81.8 °F 62.6 °F 54% 29.84 in 10.0 mi West 10.4 mph - N/A   Clear
12:50 PM 80.6 °F 81.5 °F 60.8 °F 51% 29.84 in 10.0 mi West 11.5 mph 19.6 mph N/A   Clear
1:10 PM 80.6 °F 81.5 °F 60.8 °F 51% 29.84 in 10.0 mi West 16.1 mph 20.7 mph N/A   Clear
1:30 PM 80.6 °F 81.8 °F 62.6 °F 54% 29.85 in 10.0 mi WNW 15.0 mph 20.7 mph N/A   Clear
1:50 PM 82.4 °F 83.4 °F 62.6 °F 51% 29.84 in 10.0 mi West 12.7 mph - N/A   Clear
2:10 PM 82.4 °F 82.9 °F 60.8 °F 48% 29.84 in 10.0 mi West 13.8 mph 19.6 mph N/A   Clear
2:30 PM 82.4 °F 82.5 °F 59.0 °F 45% 29.83 in 10.0 mi WNW 17.3 mph 26.5 mph N/A   Clear
2:50 PM 84.2 °F 83.8 °F 59.0 °F 42% 29.83 in 10.0 mi West 15.0 mph 21.9 mph N/A   Clear
3:10 PM 82.4 °F 82.5 °F 59.0 °F 45% 29.83 in 10.0 mi WNW 18.4 mph 23.0 mph N/A   Scattered Clouds
3:30 PM 82.4 °F 82.5 °F 59.0 °F 45% 29.83 in 10.0 mi WSW 19.6 mph 27.6 mph N/A   Partly Cloudy
3:50 PM 82.4 °F 82.5 °F 59.0 °F 45% 29.81 in 10.0 mi West 13.8 mph 25.3 mph N/A   Clear
4:10 PM 84.2 °F 84.4 °F 60.8 °F 45% 29.82 in 10.0 mi West 16.1 mph 24.2 mph N/A   Clear
4:30 PM 84.2 °F 84.4 °F 60.8 °F 45% 29.81 in 10.0 mi WSW 17.3 mph 26.5 mph N/A   Clear
4:50 PM 82.4 °F 82.9 °F 60.8 °F 48% 29.81 in 10.0 mi West 19.6 mph 27.6 mph N/A   Clear
5:10 PM 82.4 °F 83.4 °F 62.6 °F 51% 29.81 in 10.0 mi West 15.0 mph 23.0 mph N/A   Clear
5:30 PM 82.4 °F 83.4 °F 62.6 °F 51% 29.81 in 10.0 mi West 17.3 mph 26.5 mph N/A   Clear
5:50 PM 80.6 °F 81.8 °F 62.6 °F 54% 29.81 in 10.0 mi West 13.8 mph 19.6 mph N/A   Clear
6:10 PM 80.6 °F 82.3 °F 64.4 °F 58% 29.81 in 10.0 mi West 16.1 mph 20.7 mph N/A Rain Light Rain
6:30 PM 80.6 °F 82.3 °F 64.4 °F 58% 29.81 in 10.0 mi WNW 13.8 mph 19.6 mph N/A   Clear
6:50 PM 78.8 °F - 57.2 °F 47% 29.82 in 10.0 mi WNW 12.7 mph 21.9 mph N/A   Clear
7:10 PM 77.0 °F - 57.2 °F 50% 29.83 in 10.0 mi NW 13.8 mph 19.6 mph N/A   Clear
7:30 PM 77.0 °F - 55.4 °F 47% 29.83 in 10.0 mi WNW 13.8 mph - N/A   Clear
7:50 PM 75.2 °F - 55.4 °F 50% 29.83 in 10.0 mi WNW 10.4 mph - N/A   Clear
8:10 PM 73.4 °F - 57.2 °F 57% 29.83 in 10.0 mi WNW 6.9 mph - N/A   Clear
8:30 PM 71.6 °F - 57.2 °F 60% 29.84 in 10.0 mi West 6.9 mph - N/A   Clear
8:50 PM 71.6 °F - 57.2 °F 60% 29.84 in 10.0 mi WNW 6.9 mph - N/A   Clear
9:10 PM 69.8 °F - 57.2 °F 64% 29.85 in 10.0 mi WNW 6.9 mph - N/A   Clear
9:30 PM 71.6 °F - 59.0 °F 64% 29.86 in 10.0 mi WNW 8.1 mph - N/A   Clear
9:50 PM 66.2 °F - 60.8 °F 83% 29.88 in 10.0 mi North 8.1 mph - N/A   Clear
10:10 PM 64.4 °F - 62.6 °F 94% 29.88 in 10.0 mi North 4.6 mph - N/A   Clear
10:30 PM 64.4 °F - 62.6 °F 94% 29.89 in 10.0 mi North 5.8 mph - N/A   Clear
10:50 PM 62.6 °F - 62.6 °F 100% 29.89 in 10.0 mi North 4.6 mph - N/A   Clear
11:10 PM 59.0 °F - 59.0 °F 100% 29.90 in 10.0 mi NNW 5.8 mph - N/A   Clear
11:30 PM 59.0 °F - 59.0 °F 100% 29.91 in 10.0 mi WNW 4.6 mph - N/A   Clear
11:50 PM 59.0 °F - 59.0 °F 100% 29.91 in 10.0 mi NW 5.8 mph - N/A   Clear